Location: Breezy Point Observatory
(38.9725°N, 81.7133°W)
Time: 05:00:04

Hubble Space Telescope - Visible Passes

Search period start: 27 November 2015 00:00
Search period end: 07 December 2015 00:00
Orbit: 540 x 544 km, 28.5° (Epoch: 25 November)

Date Brightness Start Highest point End Pass type
(mag) Time Alt. Az. Time Alt. Az. Time Alt. Az.
03 Dec 4.0 06:58:29 10° SSE 06:58:39 10° SSE 06:58:55 10° SSE visible
04 Dec 3.6 06:47:43 10° S 06:49:17 12° SSE 06:50:56 10° SE visible
05 Dec 3.5 06:37:48 10° SSW 06:39:57 14° SSE 06:42:07 10° SE visible
06 Dec 3.4 06:28:06 10° SSW 06:30:35 15° S 06:33:06 10° SE visible
